Tracking 35274 objects as of 12-Sep-2026
HD Live streaming from Space Station
objects crossing your sky now

FREGAT DEB

Track FREGAT DEB now!
10-day predictions


NORAD ID: 45828
Int'l Code: 2011-037BN
Launch date: July 18, 2011
Source: Commonwealth of Independent States (former USSR) (CIS)
Launch site: TYURATAM MISSILE AND SPACE COMPLEX (TTMTR)

Note: This is SATELLITE DEBRIS
Your satellite tracking list
Your tracking list is empty




NASA's NSSDC Master Catalog

Two Line Element Set (TLE):
1 45828U 11037BN  20196.39617862 -.00107127  00000-0 -45031+0 0  9991
2 45828  51.3397 326.6549 2171290  70.9038 311.3232  9.81368529  4102
Source of the keplerian elements: AFSPC